Weather History for LHBP - October, 2012

Change the Weather History Date:

Friday, October 5, 2012

  Actual Average Record
Temperature  
Mean Temperature 58 °F -  
Max Temperature 66 °F 57 °F 77 °F (2011)
Min Temperature 50 °F 39 °F 24 °F (2013)
Degree Days  
Heating Degree Days 6    
Growing Degree Days 8 (Base 50)    
Moisture  
Dew Point 44 °F    
Average Humidity 60    
Maximum Humidity 88    
Minimum Humidity 32    
Precipitation  
Precipitation 0.00 in - - ()
Sea Level Pressure  
Sea Level Pressure 30.11 in    
Wind  
Wind Speed 8 mph ()    
Max Wind Speed 25 mph    
Max Gust Speed -    
Visibility 6.2 miles    
Events      
Averages and records for this station are not official NWS values.
T = Trace of Precipitation, MM = Missing Value Source: Averaged Metar Reports

Daily Weather History Graph

Daily Weather History Graph

Search for Another Location

Airport or City:

Trip Planner

Search our weather history database for the weather conditions in past years. The results will help you decide how hot, cold, wet, or windy it might be!

Date:

Astronomy

Oct. 05, 2012 Rise Set
Actual Time 6:47 AM CEST 6:14 PM CEST
Civil Twilight 6:17 AM CEST 6:44 PM CEST
Nautical Twilight 5:41 AM CEST 7:20 PM CEST
Astronomical Twilight 5:05 AM CEST 7:55 PM CEST
Moon 9:03 PM CEST (10/5) 12:00 PM CEST (10/5)
Length of Visible Light 12h 27m
Length of Day
11h 26m
Waning Gibbous, 76% of the Moon is Illuminated
Oct 5
Waning Gibbous
Oct 8
Last Quarter
Oct 15
New
Oct 22
First Quarter
Oct 29
Full

Hourly Weather History & Observations

Time (CEST) Temp. Dew Point Humidity Pressure Visibility Wind Dir Wind Speed Gust Speed Precip Events Conditions
12:00 AM 57.2 °F 51.8 °F 82% 30.01 in 6.2 mi Variable 3.5 mph - N/A   Scattered Clouds
12:30 AM 57.2 °F 53.6 °F 88% 30.01 in 6.2 mi Variable 1.2 mph - N/A   Mostly Cloudy
1:00 AM 57.2 °F 53.6 °F 88% 30.01 in 6.2 mi Calm Calm - N/A   Mostly Cloudy
1:30 AM 60.8 °F 55.4 °F 82% 30.04 in 6.2 mi WNW 10.4 mph - N/A   Mostly Cloudy
2:00 AM 60.8 °F 51.8 °F 72% 30.04 in - NW 8.1 mph - N/A   Clear
2:30 AM 60.8 °F 48.2 °F 63% 30.04 in - WNW 10.4 mph - N/A   Clear
3:00 AM 59.0 °F 44.6 °F 59% 30.04 in - NW 15.0 mph - N/A   Clear
3:30 AM 59.0 °F 44.6 °F 59% 30.06 in - NW 16.1 mph - N/A   Clear
4:00 AM 57.2 °F 44.6 °F 63% 30.06 in - WNW 25.3 mph - N/A   Clear
4:30 AM 55.4 °F 44.6 °F 67% 30.06 in - WNW 17.3 mph - N/A   Clear
5:00 AM 55.4 °F 44.6 °F 67% 30.09 in - NW 15.0 mph - N/A   Clear
5:30 AM 53.6 °F 44.6 °F 72% 30.09 in - West 10.4 mph - N/A   Clear
6:00 AM 53.6 °F 44.6 °F 72% 30.09 in - West 9.2 mph - N/A   Clear
6:30 AM 53.6 °F 42.8 °F 67% 30.09 in - NW 20.7 mph - N/A   Clear
7:00 AM 53.6 °F 42.8 °F 67% 30.12 in - NW 19.6 mph - N/A   Clear
7:30 AM 51.8 °F 42.8 °F 71% 30.12 in - NNW 8.1 mph - N/A   Clear
8:00 AM 53.6 °F 42.8 °F 67% 30.12 in - NW 6.9 mph - N/A   Clear
8:30 AM 55.4 °F 42.8 °F 63% 30.12 in - NW 11.5 mph - N/A   Clear
9:00 AM 55.4 °F 42.8 °F 63% 30.15 in - NW 6.9 mph - N/A   Clear
9:30 AM 55.4 °F 41.0 °F 58% 30.15 in - WNW 11.5 mph - N/A   Clear
10:00 AM 57.2 °F 41.0 °F 55% 30.15 in - NW 11.5 mph - N/A   Clear
10:30 AM 57.2 °F 41.0 °F 55% 30.18 in - WNW 10.4 mph - N/A   Clear
11:00 AM 59.0 °F 39.2 °F 48% 30.18 in - NW 9.2 mph - N/A   Clear
11:30 AM 59.0 °F 39.2 °F 48% 30.18 in - West 10.4 mph - N/A   Clear
12:00 PM 60.8 °F 37.4 °F 42% 30.18 in - WNW 8.1 mph - N/A   Clear
12:30 PM 62.6 °F 37.4 °F 39% 30.15 in - North 5.8 mph - N/A   Clear
1:00 PM 62.6 °F 35.6 °F 37% 30.15 in - NW 6.9 mph - N/A   Clear
1:30 PM 64.4 °F 35.6 °F 34% 30.15 in - WNW 4.6 mph - N/A   Clear
2:00 PM 64.4 °F 33.8 °F 32% 30.15 in - Variable 3.5 mph - N/A   Clear
2:30 PM 66.2 °F 37.4 °F 35% 30.15 in - West 8.1 mph - N/A   Clear
3:00 PM 66.2 °F 39.2 °F 37% 30.12 in - SW 5.8 mph - N/A   Clear
3:30 PM 66.2 °F 39.2 °F 37% 30.12 in - WSW 6.9 mph - N/A   Clear
4:00 PM 66.2 °F 41.0 °F 40% 30.12 in - SSW 8.1 mph - N/A   Clear
4:30 PM 66.2 °F 41.0 °F 40% 30.12 in - SW 9.2 mph - N/A   Clear
5:00 PM 64.4 °F 41.0 °F 42% 30.12 in - Variable 3.5 mph - N/A   Clear
5:30 PM 64.4 °F 42.8 °F 45% 30.12 in - SSW 6.9 mph - N/A   Clear
6:00 PM 64.4 °F 44.6 °F 49% 30.12 in - South 4.6 mph - N/A   Clear
6:30 PM 59.0 °F 44.6 °F 59% 30.12 in - SE 4.6 mph - N/A   Clear
7:00 PM 60.8 °F 44.6 °F 55% 30.12 in - SSE 6.9 mph - N/A   Clear
7:30 PM 60.8 °F 46.4 °F 59% 30.12 in - South 6.9 mph - N/A   Clear
8:00 PM 60.8 °F 46.4 °F 59% 30.12 in - South 8.1 mph - N/A   Clear
8:30 PM 57.2 °F 46.4 °F 67% 30.12 in - South 5.8 mph - N/A   Clear
9:00 PM 53.6 °F 46.4 °F 77% 30.12 in - ESE 4.6 mph - N/A   Clear
9:30 PM 51.8 °F 46.4 °F 82% 30.12 in - SE 6.9 mph - N/A   Clear
10:00 PM 51.8 °F 46.4 °F 82% 30.12 in - ESE 6.9 mph - N/A   Clear
10:30 PM 53.6 °F 46.4 °F 77% 30.12 in - SE 4.6 mph - N/A   Clear
11:00 PM 51.8 °F 46.4 °F 82% 30.12 in - East 4.6 mph - N/A   Clear
11:30 PM 50.0 °F 46.4 °F 87% 30.12 in - ESE 5.8 mph - N/A   Clear